Location: Sungai Dangang
(2.7500°N, 113.8333°E)
Time: 23:12:53
(UTC+00:00)

COSMO-SKYMED 1 - Pass Details

Date: 16 May 2021
Orbit: 621 x 623 km, 97.9° (Epoch: 15 June)

Event Time Altitude Azimuth Distance (km) Brightness Sun altitude
Rises 21:47:57 0° 160° (SSE) 2,899 6.0 -6.9°
Reaches altitude 10° 21:50:10 10° 156° (SSE) 1,991 5.2 -6.4°
Maximum altitude 21:54:24 55° 78° (ENE) 752 3.5 -5.4°
Drops below altitude 10° 21:58:38 10° 1° (N) 1,985 5.4 -4.4°
Sets 22:00:50 0° 356° (N) 2,888 6.2 -3.9°
